User: anonymous
Location: Unspecified
(0.0000°N, 0.0000°E)
Time: 17:57:18
(UTC+02:00)
Language:

Cosmos 1782 Rocket - Orbit

View from above orbital plane
View from above orbital plane
View from above satellite
View from above satellite

Ground track
Ground track

The orbit data is extracted from the following two-line orbital elements,

1 16987U 86074B   14205.14127365  .00000109  00000-0  10591-4 0  4127
2 16987 082.5141 221.9622 0019710 145.6396 279.0343 14.82426545501533
Epoch (UTC): 24 July 2014 03:23:26
Eccentricity: 0.0019710
inclination: 82.5141°
perigee height: 608 km
apogee height: 635 km
right ascension of ascending node: 221.9622°
argument of perigee: 145.6396°
revolutions per day: 14.82426545
mean anomaly at epoch: 279.0343°
orbit number at epoch: 50153

The dashed part of the orbit path shows where the satellite is in the earth's shadow,  

DLR